• En Estados Unidos
  • Lista de países
  • Para 7 días
  • Temperatura del agua
  • Mapa Satelital
  • El tiempo en el mapa
  • Informadores
  • user-avatar
    Iniciar sesión

    Tiempo cada hora Uige

    Hoy, 22 Abril, Domingo

    Tiempo Temperatura Precipitaciones Viento Presión Humedad
    00:00 +20°C° 0 mm 0 mps 691 mmHg 91%
    01:00 +20°C° 0 mm 0 mps 691 mmHg 91%
    02:00 +20°C° 0 mm 0 mps 691 mmHg 92%
    03:00 +19°C° 0 mm 0 mps 691 mmHg 93%
    04:00 +19°C° 0 mm 0 mps 690 mmHg 94%
    05:00 +20°C° 0 mm 0 mps 691 mmHg 93%
    06:00 +22°C° 0 mm 1 mps 691 mmHg 92%
    07:00 +22°C° 0 mm 1 mps 691 mmHg 91%
    08:00 +25°C° 0 mm 1 mps 692 mmHg 80%
    09:00 +27°C° 0 mm 1 mps 693 mmHg 70%
    10:00 +30°C° 0 mm 1 mps 693 mmHg 59%
    11:00 +31°C° 0,1 mm 1 mps 693 mmHg 57%
    12:00 +31°C° 0,1 mm 1 mps 692 mmHg 54%
    13:00 +32°C° 0,1 mm 1 mps 691 mmHg 52%
    14:00 +31°C° 0,2 mm 1 mps 691 mmHg 55%
    15:00 +31°C° 0,2 mm 1 mps 690 mmHg 58%
    16:00 +30°C° 0,2 mm 1 mps 690 mmHg 61%
    17:00 +29°C° 0,2 mm 1 mps 690 mmHg 66%
    18:00 +25°C° 0,2 mm 0 mps 690 mmHg 72%
    19:00 +23°C° 0,2 mm 0 mps 690 mmHg 77%
    20:00 +23°C° 0,3 mm 0 mps 691 mmHg 79%
    21:00 +22°C° 0,3 mm 0 mps 691 mmHg 82%
    22:00 +22°C° 0,3 mm 0 mps 692 mmHg 84%
    23:00 +21°C° 0,1 mm 0 mps 691 mmHg 86%

    Mañana, 23 Abril, Lunes

    Tiempo Temperatura Precipitaciones Viento Presión Humedad
    00:00 +21°C° 0,1 mm 0 mps 691 mmHg 88%
    01:00 +20°C° 0,1 mm 0 mps 691 mmHg 90%
    02:00 +20°C° 0,2 mm 0 mps 691 mmHg 91%
    03:00 +20°C° 0,2 mm 0 mps 691 mmHg 93%
    04:00 +19°C° 0,2 mm 0 mps 690 mmHg 94%
    05:00 +20°C° 0,1 mm 0 mps 691 mmHg 93%
    06:00 +20°C° 0,1 mm 0 mps 691 mmHg 92%
    07:00 +23°C° 0,1 mm 1 mps 692 mmHg 90%
    08:00 +25°C° 0,4 mm 1 mps 692 mmHg 83%
    09:00 +27°C° 0,4 mm 1 mps 693 mmHg 75%
    10:00 +29°C° 0,4 mm 1 mps 694 mmHg 67%
    11:00 +29°C° 1 mm 2 mps 693 mmHg 68%
    12:00 +30°C° 1 mm 2 mps 692 mmHg 68%
    13:00 +30°C° 1 mm 2 mps 691 mmHg 69%
    14:00 +30°C° 1 mm 1 mps 691 mmHg 68%
    15:00 +30°C° 1 mm 1 mps 690 mmHg 67%
    16:00 +30°C° 1 mm 1 mps 690 mmHg 66%
    17:00 +28°C° 0,3 mm 1 mps 690 mmHg 72%
    18:00 +26°C° 0,3 mm 1 mps 690 mmHg 78%
    19:00 +22°C° 0,3 mm 0 mps 690 mmHg 84%
    20:00 +22°C° 0,3 mm 0 mps 691 mmHg 86%
    21:00 +21°C° 0,3 mm 0 mps 691 mmHg 88%
    22:00 +21°C° 0,3 mm 0 mps 692 mmHg 90%
    23:00 +21°C° 0,1 mm 0 mps 691 mmHg 91%

    Pasado mañana, 24 Abril, Martes

    Tiempo Temperatura Precipitaciones Viento Presión Humedad
    00:00 +20°C° 0,1 mm 0 mps 691 mmHg 92%
    01:00 +22°C° 0,1 mm 1 mps 691 mmHg 93%
    02:00 +22°C° 0,1 mm 1 mps 691 mmHg 93%
    03:00 +22°C° 0,1 mm 1 mps 691 mmHg 94%
    04:00 +21°C° 0,1 mm 1 mps 690 mmHg 95%
    05:00 +22°C° 0 mm 1 mps 691 mmHg 94%
    06:00 +22°C° 0 mm 1 mps 691 mmHg 93%
    07:00 +22°C° 0 mm 1 mps 692 mmHg 92%
    08:00 +25°C° 0 mm 1 mps 693 mmHg 80%
    09:00 +28°C° 0 mm 1 mps 693 mmHg 69%
    10:00 +30°C° 0 mm 2 mps 694 mmHg 57%
    11:00 +32°C° 0 mm 2 mps 693 mmHg 52%
    12:00 +34°C° 0 mm 2 mps 692 mmHg 47%
    13:00 +35°C° 0 mm 2 mps 691 mmHg 42%
    14:00 +34°C° 0 mm 2 mps 691 mmHg 46%
    15:00 +33°C° 0 mm 1 mps 690 mmHg 49%
    16:00 +32°C° 0 mm 1 mps 690 mmHg 52%
    17:00 +30°C° 0 mm 1 mps 690 mmHg 56%
    18:00 +29°C° 0 mm 1 mps 690 mmHg 61%
    19:00 +27°C° 0 mm 1 mps 691 mmHg 65%
    20:00 +24°C° 0,1 mm 0 mps 691 mmHg 69%
    21:00 +24°C° 0,1 mm 0 mps 692 mmHg 72%
    22:00 +23°C° 0,1 mm 0 mps 692 mmHg 75%
    23:00 +22°C° 0,1 mm 0 mps 692 mmHg 78%

    25 Abril, Miércoles

    Tiempo Temperatura Precipitaciones Viento Presión Humedad
    00:00 +24°C° 0,1 mm 1 mps 691 mmHg 80%
    01:00 +23°C° 0,1 mm 1 mps 691 mmHg 82%
    02:00 +23°C° 0 mm 1 mps 690 mmHg 84%
    03:00 +22°C° 0 mm 1 mps 690 mmHg 87%
    04:00 +22°C° 0 mm 1 mps 690 mmHg 89%
    05:00 +22°C° 0 mm 1 mps 691 mmHg 88%
    06:00 +21°C° 0 mm 0 mps 691 mmHg 88%
    07:00 +21°C° 0 mm 0 mps 692 mmHg 87%
    08:00 +25°C° 0,2 mm 1 mps 693 mmHg 77%
    09:00 +28°C° 0,2 mm 1 mps 693 mmHg 68%
    10:00 +30°C° 0,2 mm 1 mps 694 mmHg 58%
    11:00 +31°C° 0 mm 1 mps 693 mmHg 54%
    12:00 +32°C° 0 mm 1 mps 692 mmHg 50%
    13:00 +33°C° 0 mm 1 mps 691 mmHg 46%
    14:00 +32°C° 0,1 mm 1 mps 691 mmHg 51%
    15:00 +31°C° 0,1 mm 1 mps 690 mmHg 56%
    16:00 +30°C° 0,1 mm 1 mps 690 mmHg 61%
    17:00 +28°C° 0,6 mm 1 mps 690 mmHg 67%
    18:00 +27°C° 0,6 mm 1 mps 691 mmHg 74%
    19:00 +25°C° 0,6 mm 1 mps 691 mmHg 80%
    20:00 +24°C° 0,9 mm 1 mps 691 mmHg 84%
    21:00 +24°C° 0,9 mm 1 mps 692 mmHg 88%
    22:00 +23°C° 0,9 mm 1 mps 692 mmHg 91%
    23:00 +23°C° 0,1 mm 1 mps 692 mmHg 93%

    26 Abril, Jueves

    Tiempo Temperatura Precipitaciones Viento Presión Humedad
    00:00 +22°C° 0,1 mm 1 mps 691 mmHg 95%
    01:00 +22°C° 0,1 mm 1 mps 691 mmHg 96%
    02:00 +22°C° 0 mm 1 mps 691 mmHg 96%
    03:00 +22°C° 0 mm 1 mps 690 mmHg 97%
    04:00 +22°C° 0 mm 1 mps 690 mmHg 97%
    05:00 +22°C° 0 mm 1 mps 691 mmHg 97%
    06:00 +22°C° 0 mm 1 mps 691 mmHg 96%
    07:00 +22°C° 0 mm 1 mps 691 mmHg 95%
    08:00 +25°C° 0,3 mm 1 mps 692 mmHg 84%
    09:00 +27°C° 0,3 mm 1 mps 692 mmHg 73%
    10:00 +30°C° 0,3 mm 1 mps 693 mmHg 61%
    11:00 +31°C° 0 mm 1 mps 692 mmHg 55%
    12:00 +32°C° 0 mm 1 mps 691 mmHg 49%
    13:00 +33°C° 0 mm 1 mps 691 mmHg 43%
    14:00 +33°C° 0 mm 1 mps 690 mmHg 46%
    15:00 +32°C° 0 mm 1 mps 690 mmHg 49%
    16:00 +30°C° 0 mm 0 mps 689 mmHg 52%
    17:00 +30°C° 0 mm 1 mps 690 mmHg 57%
    18:00 +28°C° 0 mm 1 mps 690 mmHg 62%
    19:00 +26°C° 0 mm 1 mps 690 mmHg 67%
    20:00 +26°C° 0,4 mm 1 mps 690 mmHg 72%
    21:00 +25°C° 0,4 mm 1 mps 690 mmHg 76%
    22:00 +24°C° 0,4 mm 1 mps 691 mmHg 80%
    23:00 +24°C° 0,1 mm 1 mps 690 mmHg 82%

    27 Abril, Viernes

    Tiempo Temperatura Precipitaciones Viento Presión Humedad
    00:00 +22°C° 0,1 mm 0 mps 690 mmHg 84%
    01:00 +21°C° 0,1 mm 0 mps 690 mmHg 86%
    02:00 +23°C° 0 mm 1 mps 689 mmHg 87%
    03:00 +23°C° 0 mm 1 mps 689 mmHg 88%
    04:00 +22°C° 0 mm 1 mps 689 mmHg 89%
    05:00 +23°C° 0 mm 1 mps 690 mmHg 88%
    06:00 +23°C° 0 mm 1 mps 690 mmHg 87%
    07:00 +23°C° 0 mm 1 mps 691 mmHg 86%
    08:00 +26°C° 0 mm 1 mps 691 mmHg 75%
    09:00 +29°C° 0 mm 1 mps 692 mmHg 64%
    10:00 +32°C° 0 mm 1 mps 692 mmHg 53%
    11:00 +33°C° 0 mm 1 mps 692 mmHg 48%
    12:00 +34°C° 0 mm 1 mps 691 mmHg 44%
    13:00 +35°C° 0 mm 1 mps 690 mmHg 40%
    14:00 +34°C° 0 mm 1 mps 690 mmHg 45%
    15:00 +33°C° 0 mm 1 mps 689 mmHg 49%
    16:00 +30°C° 0 mm 0 mps 689 mmHg 53%
    17:00 +28°C° 0 mm 0 mps 689 mmHg 58%
    18:00 +27°C° 0 mm 0 mps 689 mmHg 62%
    19:00 +25°C° 0 mm 0 mps 690 mmHg 67%
    20:00 +24°C° 1,2 mm 0 mps 690 mmHg 74%
    21:00 +23°C° 1,2 mm 0 mps 690 mmHg 81%
    22:00 +22°C° 1,2 mm 0 mps 690 mmHg 88%
    23:00 +22°C° 1,6 mm 0 mps 690 mmHg 89%
    Mostrar más